Current weather by "City, St" or "zip code"  
 

Current Conditions: Bellaire, Antrim County Airport, MI

Overcast


39.0 F

Last Updated on Oct 24 2020, 12:55 pm EDT
Humidity: 79%
Wind Speed: N 0.0 mph
Barometer 30.26 in
Dewpoint: 33.3 F
Visibility: 10.00 mi
Precip: --
Heat Index: NA
Wind Chill: NA
Current conditions at:

Bellaire, Antrim County Airport, MI (KACB)

Lat: 44.98833 Lon: 85.19833

Local Radar Image active severe weather and emergency alerts image image weather storm and storm spotter reports image weather observation monitoring service image
Local
Radar
Active
Alerts
Storm Reports Obs
Monitoring

Sign-up For Email & Text Message Weather Alert Notification Services



Advertise Here

Observation History for Bellaire, Antrim County Airport, MI


Time Wind
(mph)
Vis
(mi)
Weather Precip (in) Temperature (F) Relative
Humidity
Wind
Chill
(F)
Heat
Index
(F)
Pressure
Air Dwpt altimeter
(in)
sea level
(mb)
Rmks
12:55 pm EDT N 0.0 10.00 Overcast -- 39.0 33.3 79% NA NA 30.26 M
11:55 am EDT N 0.0 10.00 Overcast -- 37.0 32.0 82% NA NA 30.27 M
10:55 am EDT N 0.0 1.50 Light Snow -- 36.0 31.8 85% NA NA 30.27 M
9:55 am EDT N 0.0 10.00 Overcast -- 37.0 33.4 88% NA NA 30.25 M
8:55 am EDT N 0.0 10.00 Overcast -- 36.0 33.8 93% NA NA 30.23 M
7:55 am EDT N 0.0 10.00 Overcast -- 36.0 33.6 91% NA NA 30.24 M
6:55 am EDT N 0.0 10.00 Overcast -- 36.0 33.3 91% NA NA 30.22 M
5:55 am EDT N 0.0 10.00 Overcast -- 37.0 32.4 85% NA NA 30.21 M
4:55 am EDT N 0.0 10.00 Overcast -- 38.0 28.8 70% NA NA 30.19 M
3:55 am EDT N 3.5 10.00 Overcast -- 38.0 29.3 70% NA NA 30.18 M
2:55 am EDT N 4.6 10.00 Overcast -- 38.0 30.2 73% 34 NA 30.17 M
1:55 am EDT N 6.9 10.00 Overcast -- 38.0 30.4 73% 33 NA 30.16 M
12:55 am EDT N 5.8 10.00 Overcast -- 38.0 31.1 76% 34 NA 30.14 M
11:55 pm EDT NW 3.5 10.00 Mostly Cloudy -- 36.0 32.7 87% NA NA 30.12 M
10:55 pm EDT N 0.0 10.00 Mostly Cloudy -- 37.0 32.7 83% NA NA 30.10 M
9:55 pm EDT NW 9.2 10.00 Unknown Precip -- 38.0 33.6 85% 32 NA 30.06 M
8:55 pm EDT NW 5.8 7.00 Unknown Precip -- 39.0 34.7 85% 35 NA 30.03 M
7:55 pm EDT NW 8.1 G 19.6 10.00 Overcast -- 40.0 35.2 84% 35 NA 29.98 M
6:55 pm EDT N 5.8 G 16.1 5.00 Unknown Precip -- 40.0 37.4 89% 36 NA 29.95 M
5:55 pm EDT NW 4.6 3.00 Fog/Mist -- 42.0 39.4 90% 39 NA 29.91 M
4:55 pm EDT NW 8.1 1.50 Unknown Precip -- 43.0 40.6 91% 38 NA 29.88 M
3:55 pm EDT N 0.0 1.75 Light Snow -- 42.0 39.7 92% NA NA 29.86 M
2:55 pm EDT N 3.5 3.00 Unknown Precip -- 42.0 39.6 91% NA NA 29.82 M
1:55 pm EDT N 0.0 4.00 Unknown Precip -- 42.0 39.6 91% NA NA 29.83 M

Regional Weather Observation


Bellaire, Antrim County Airport, MI (KACB)

Overcast
39.0 F

Beaver Island, Beaver Island Airport, MI (KSJX)

Light Rain
38.0 F

Harbor Springs, Harbor Springs Airport, MI (KMGN)

Unknown Precip
36.0 F

Cherry Capital Airport, MI (KTVC)

Overcast
42.0 F

Gaylord Regional Airport, MI (KGLR)

Overcast
37.0 F

Pellston Regional Airport of Emmet County, MI (KPLN)

Overcast
37.0 F